Other Public Products
Issued by NWS Charleston, SC

Home | Current Version | Previous Version | Text Only | Print | Product List | Glossary On
Versions: 1 2 3 4 5 6 7 8 9 10 11 12 13 14 15 16 17 18 19 20 21 22 23 24 25 26 27 28 29 30 31 32 33 34 35 36 37 38 39 40 41 42 43 44 45 46 47 48 49 50
805
FPUS82 KCHS 230429
OPUCHS

TEST...KCHS/KSAV Gateway Observations...TEST
National Weather Service Charleston SC
1200 AM EDT SAT SEP 23 2017

NOTE: "fair" indicates few or no clouds below 12,000 feet with no
significant weather and/or obstructions to visibility.

SCZ050-WAZ558-NCZ071-TXZ119-213-PAZ071-DCZ001-FLZ074-172-MI076-
NYZ176-178-MAZ016-IL014-TNZ027-NJZ106-GAZ044-MD014-230500-

...Gateway Observations for Charleston International...

CITY           SKY/WX    TMP DP  RH WIND       PRES   REMARKS
Chas Airport   CLEAR     72  71  97 CALM      30.00S
Seattle        MOCLDY    61  47  59 S3        30.04S
Charlotte      PTCLDY    70  67  90 CALM      30.05S
Dallas DFW     CLEAR     83  66  56 SE10      29.91R
Dallas Love    CLEAR     82  66  58 SE12      29.92R
Philladelphia  MOCLDY    74  54  49 N7        30.00S
Wash National  MOCLDY    73  67  81 CALM      30.02S
Baltimore      MOCLDY    63  63 100 W5        30.01S
Miami          CLOUDY    80  78  94 N6        29.86F
Detroit        PTCLDY    71  65  81 CALM      30.10S
Newark         PTCLDY    74  52  46 N12       29.98S
Laguardia      PTCLDY    73  57  57 N10       29.97S
J F K          PTCLDY    73  56  54 N18G24    29.98R
Boston Logan   DRIZZLE   62  61  96 N18       30.00S FOG
Ft. Lauderdale CLOUDY    79  77  94 E7        29.85S
Chicago O`Hare CLEAR     78  66  66 SE9       30.03S
Chicago Midway CLEAR     83  68  60 SE6       30.04R
Houston Bush   CLEAR     75  72  90 SE3       29.92S
Houston Hobby  PTCLDY    79  73  82 CALM      29.91S
Nashville      PTCLDY    76  68  76 CALM      30.03S
Atlanta        PTCLDY    75  68  78 CALM      30.05R

$$

GAZ044-118-TXZ119-213-NCZ071-DCZ001-MDZ014-506-PAZ021-071-NJZ106-
NYZ176-178-MAZ106-OHZ011-021-055-MIZ076-KYZ091-ILZ014-INZ047-
MNZ060-ONZ431-230500-

...Gateway Observations for Savannah International...

CITY           SKY/WX    TMP DP  RH WIND       PRES   REMARKS
Savannah Arpt  CLEAR     73  71  93 CALM      30.00S
Atlanta        PTCLDY    75  68  78 CALM      30.05R
Charlotte      PTCLDY    70  67  90 CALM      30.05S
Dallas DFW     CLEAR     83  66  56 SE10      29.91R
Houston Bush   CLEAR     75  72  90 SE3       29.92S
Wash National  MOCLDY    73  67  81 CALM      30.02S
Wash Dulles    CLOUDY    64  63  96 CALM      30.04S
Baltimore      MOCLDY    63  63 100 W5        30.01S
Philadelphia   MOCLDY    74  54  49 N7        30.00S
Newark         PTCLDY    74  52  46 N12       29.98S
Laguardia      PTCLDY    73  57  57 N10       29.97S
J F K          PTCLDY    73  56  54 N18G24    29.98R
Boston         DRIZZLE   62  61  96 N18       30.00S FOG
Pittsburg      MOCLDY    68  57  68 CALM      30.11R
Akron          MOCLDY    70  57  63 E5        30.11S
Cleveland      PTCLDY    68  61  78 CALM      30.11S
Cincinnati     CLEAR     70  68  93 CALM      30.07S
Columbus       CLEAR     68  66  93 CALM      30.07S
Detroit        PTCLDY    71  65  81 CALM      30.10S
Chicago O`Hare CLEAR     78  66  66 SE9       30.03S
Minneapolis    CLOUDY    85  69  58 S18G26    29.84S
Indianapolis   PTCLDY    75  65  70 CALM      30.06S
Toronto Canada CLEAR     70  50  49 W5        30.09F

$$




USA.gov is the U.S. government's official web portal to all federal, state and local government web resources and services.